| time (UTC) | temp F | wind direction | speed knots | gust knots | rain 1hr in | rain 24hr in | rain mn in | humidity % | barometer mb |
| 20260509222815 | 91 | 84 | 0.0 | 0.9 | 0.00 | 0.00 | 0.01 | 38 | 1008.4 |
| 20260509221806 | 90 | 170 | 0.0 | 1.7 | 0.00 | 0.00 | 0.01 | 39 | 1008.4 |
| 20260509220839 | 90 | 227 | 0.0 | 1.7 | 0.00 | 0.00 | 0.01 | 38 | 1008.1 |
| 20260509215834 | 90 | 113 | 0.0 | 1.7 | 0.00 | 0.00 | 0.01 | 38 | 1008.1 |
| 20260509214824 | 89 | 177 | 0.0 | 2.6 | 0.00 | 0.00 | 0.01 | 36 | 1008.1 |
| 20260509213819 | 90 | 89 | 0.0 | 1.7 | 0.00 | 0.00 | 0.01 | 38 | 1008.4 |
| 20260509212818 | 90 | 139 | 0.9 | 1.7 | 0.00 | 0.00 | 0.01 | 38 | 1008.4 |
| 20260509211813 | 89 | 246 | 0.0 | 1.7 | 0.00 | 0.00 | 0.01 | 37 | 1008.4 |
| 20260509210842 | 90 | 125 | 0.0 | 1.7 | 0.00 | 0.00 | 0.01 | 36 | 1008.8 |
| 20260509205825 | 89 | 120 | 0.0 | 1.7 | 0.00 | 0.00 | 0.01 | 35 | 1008.8 |
| 20260509204820 | 89 | 43 | 0.9 | 2.6 | 0.00 | 0.00 | 0.01 | 33 | 1009.1 |
| 20260509203848 | 89 | 110 | 0.9 | 1.7 | 0.00 | 0.00 | 0.01 | 39 | 1009.4 |
| 20260509201813 | 90 | 59 | 0.9 | 2.6 | 0.00 | 0.00 | 0.01 | 40 | 1009.4 |
| 20260509200805 | 88 | 34 | 0.9 | 2.6 | 0.00 | 0.00 | 0.01 | 39 | 1009.4 |
| 20260509194813 | 88 | 81 | 0.9 | 2.6 | 0.00 | 0.00 | 0.01 | 47 | 1009.8 |
| 20260509193819 | 88 | 85 | 0.9 | 3.5 | 0.00 | 0.00 | 0.01 | 44 | 1009.8 |
| 20260509192848 | 88 | 131 | 0.9 | 3.5 | 0.00 | 0.00 | 0.01 | 49 | 1009.8 |
| 20260509191841 | 87 | 214 | 0.9 | 2.6 | 0.00 | 0.00 | 0.01 | 51 | 1009.8 |
| 20260509185826 | 86 | 213 | 1.7 | 3.5 | 0.00 | 0.00 | 0.01 | 50 | 1010.1 |
| 20260509184831 | 86 | 278 | 1.7 | 3.5 | 0.00 | 0.00 | 0.01 | 51 | 1010.1 |
| 20260509183847 | 86 | 237 | 0.9 | 2.6 | 0.00 | 0.00 | 0.01 | 51 | 1010.1 |
| 20260509182824 | 86 | 266 | 0.9 | 2.6 | 0.00 | 0.00 | 0.01 | 51 | 1010.4 |
| 20260509181843 | 86 | 196 | 0.9 | 3.5 | 0.00 | 0.00 | 0.01 | 51 | 1010.4 |
| 20260509180835 | 85 | 286 | 0.9 | 2.6 | 0.00 | 0.00 | 0.01 | 53 | 1010.8 |
| 20260509175829 | 85 | 261 | 0.9 | 1.7 | 0.00 | 0.00 | 0.01 | 54 | 1010.8 |
| 20260509174813 | 85 | 156 | 0.0 | 2.6 | 0.00 | 0.00 | 0.01 | 56 | 1010.8 |
| 20260509172819 | 84 | 248 | 0.9 | 2.6 | 0.00 | 0.00 | 0.01 | 57 | 1010.8 |
| 20260509171820 | 84 | 228 | 0.9 | 2.6 | 0.00 | 0.00 | 0.01 | 57 | 1011.1 |
| 20260509170845 | 83 | 188 | 0.9 | 2.6 | 0.00 | 0.00 | 0.01 | 57 | 1011.1 |
| 20260509165813 | 82 | 265 | 1.7 | 4.3 | 0.00 | 0.00 | 0.01 | 60 | 1011.1 |
| 20260509164810 | 82 | 236 | 1.7 | 3.5 | 0.00 | 0.00 | 0.01 | 61 | 1011.1 |
| 20260509163807 | 82 | 241 | 1.7 | 4.3 | 0.00 | 0.00 | 0.01 | 60 | 1011.1 |
| 20260509162816 | 81 | 328 | 2.6 | 5.2 | 0.00 | 0.00 | 0.01 | 59 | 1011.5 |
| 20260509160811 | 81 | 237 | 0.9 | 2.6 | 0.00 | 0.00 | 0.01 | 62 | 1011.5 |
| 20260509155832 | 80 | 266 | 1.7 | 3.5 | 0.00 | 0.00 | 0.01 | 64 | 1011.5 |
| 20260509154848 | 80 | 267 | 1.7 | 4.3 | 0.00 | 0.00 | 0.01 | 65 | 1011.5 |
| 20260509153834 | 79 | 299 | 1.7 | 3.5 | 0.00 | 0.00 | 0.01 | 64 | 1011.5 |
| 20260509152808 | 79 | 210 | 0.9 | 1.7 | 0.00 | 0.00 | 0.01 | 66 | 1011.1 |
| 20260509151816 | 79 | 115 | 1.7 | 3.5 | 0.00 | 0.00 | 0.01 | 65 | 1011.1 |
| 20260509150826 | 77 | 240 | 1.7 | 3.5 | 0.00 | 0.00 | 0.01 | 71 | 1011.1 |
| 20260509143829 | 76 | 217 | 1.7 | 3.5 | 0.00 | 0.00 | 0.01 | 71 | 1011.1 |
| 20260509142837 | 76 | 269 | 2.6 | 4.3 | 0.00 | 0.00 | 0.01 | 71 | 1011.1 |
| 20260509141805 | 75 | 273 | 2.6 | 4.3 | 0.00 | 0.00 | 0.01 | 75 | 1011.5 |
| 20260509140844 | 74 | 296 | 3.5 | 6.1 | 0.00 | 0.00 | 0.01 | 80 | 1011.5 |
| 20260509135805 | 72 | 326 | 2.6 | 5.2 | 0.00 | 0.00 | 0.01 | 82 | 1011.5 |
| 20260509134838 | 72 | 327 | 2.6 | 4.3 | 0.00 | 0.00 | 0.01 | 82 | 1011.5 |
| 20260509133819 | 72 | 318 | 1.7 | 3.5 | 0.00 | 0.00 | 0.01 | 82 | 1011.5 |
| 20260509132842 | 72 | 327 | 1.7 | 3.5 | 0.00 | 0.00 | 0.01 | 81 | 1011.1 |
| 20260509131819 | 71 | 341 | 1.7 | 4.3 | 0.00 | 0.00 | 0.01 | 82 | 1011.1 |
| 20260509130847 | 70 | 331 | 1.7 | 3.5 | 0.00 | 0.00 | 0.01 | 82 | 1011.5 |
| 20260509125819 | 69 | 296 | 1.7 | 3.5 | 0.00 | 0.00 | 0.01 | 83 | 1011.1 |
| 20260509124812 | 69 | 292 | 0.9 | 2.6 | 0.00 | 0.00 | 0.01 | 83 | 1011.5 |
| 20260509123833 | 69 | 227 | 0.9 | 2.6 | 0.00 | 0.00 | 0.01 | 83 | 1011.1 |
| 20260509122847 | 70 | 297 | 0.0 | 0.9 | 0.00 | 0.00 | 0.01 | 84 | 1011.1 |
| 20260509120820 | 68 | 174 | 0.9 | 2.6 | 0.00 | 0.00 | 0.01 | 86 | 1011.1 |
| 20260509115839 | 68 | 147 | 0.0 | 1.7 | 0.00 | 0.00 | 0.01 | 86 | 1010.8 |
| 20260509112822 | 68 | 148 | 0.0 | 0.9 | 0.00 | 0.00 | 0.01 | 83 | 1010.4 |
| 20260509111815 | 69 | 132 | 0.0 | 0.9 | 0.00 | 0.00 | 0.01 | 83 | 1010.1 |
| 20260509110812 | 69 | 38 | 0.0 | 0.9 | 0.00 | 0.00 | 0.01 | 82 | 1010.1 |
| 20260509105840 | 69 | 307 | 0.9 | 2.6 | 0.00 | 0.00 | 0.01 | 81 | 1009.8 |
| 20260509104825 | 69 | 335 | 1.7 | 3.5 | 0.00 | 0.00 | 0.01 | 80 | 1010.1 |
| 20260509103806 | 68 | 339 | 1.7 | 3.5 | 0.00 | 0.00 | 0.01 | 79 | 1010.1 |
| 20260509102827 | 69 | 310 | 1.7 | 4.3 | 0.00 | 0.00 | 0.01 | 77 | 1010.1 |
| 20260509101836 | 69 | 282 | 0.9 | 1.7 | 0.00 | 0.00 | 0.01 | 82 | 1009.8 |
| 20260509100820 | 70 | 187 | 0.9 | 2.6 | 0.00 | 0.00 | 0.01 | 85 | 1010.1 |
| 20260509094822 | 71 | 326 | 2.6 | 5.2 | 0.00 | 0.00 | 0.01 | 85 | 1009.8 |
| 20260509092821 | 71 | 164 | 1.7 | 4.3 | 0.00 | 0.00 | 0.01 | 91 | 1007.7 |
| 20260509085822 | 70 | 150 | 1.7 | 4.3 | 0.00 | 0.00 | 0.01 | 91 | 1007.4 |
| 20260509084807 | 70 | 153 | 2.6 | 6.1 | 0.00 | 0.00 | 0.01 | 91 | 1007.4 |
| 20260509081824 | 70 | 162 | 3.5 | 7.8 | 0.00 | 0.00 | 0.01 | 91 | 1008.4 |
| 20260509080847 | 70 | 155 | 2.6 | 7.0 | 0.00 | 0.00 | 0.01 | 92 | 1008.8 |
| 20260509075824 | 70 | 176 | 0.9 | 3.5 | 0.00 | 0.00 | 0.01 | 92 | 1009.1 |
| 20260509074835 | 70 | 126 | 0.9 | 2.6 | 0.00 | 0.00 | 0.01 | 92 | 1009.1 |
| 20260509073806 | 70 | 125 | 0.9 | 1.7 | 0.00 | 0.00 | 0.01 | 92 | 1009.4 |
| 20260509072828 | 70 | 129 | 0.9 | 1.7 | 0.00 | 0.00 | 0.01 | 91 | 1010.4 |
| 20260509070815 | 70 | 108 | 0.0 | 1.7 | 0.00 | 0.00 | 0.01 | 91 | 1011.8 |
| 20260509065836 | 70 | 305 | 1.7 | 5.2 | 0.00 | 0.00 | 0.01 | 93 | 1012.5 |
| 20260509063808 | 70 | 304 | 0.0 | 0.9 | 0.00 | 0.00 | 0.01 | 93 | 1012.8 |
| 20260509062826 | 70 | 293 | 0.0 | 0.9 | 0.00 | 0.00 | 0.01 | 94 | 1012.1 |
| 20260509061825 | 70 | 319 | 0.9 | 1.7 | 0.00 | 0.00 | 0.01 | 94 | 1012.1 |
| 20260509060823 | 69 | 314 | 0.9 | 1.7 | 0.00 | 0.00 | 0.01 | 94 | 1012.1 |
| 20260509055804 | 69 | 265 | 0.0 | 0.9 | 0.00 | 0.00 | 0.01 | 94 | 1011.8 |
| 20260509054818 | 69 | 197 | 0.0 | 0.9 | 0.00 | 0.00 | 0.01 | 94 | 1011.8 |
| 20260509053835 | 69 | 319 | 0.9 | 1.7 | 0.00 | 0.00 | 0.01 | 94 | 1011.5 |
| 20260509052843 | 69 | 182 | 0.9 | 1.7 | 0.00 | 0.00 | 0.01 | 94 | 1011.8 |
| 20260509051828 | 70 | 45 | 0.0 | 0.9 | 0.00 | 0.00 | 0.01 | 92 | 1011.5 |
| 20260509050823 | 70 | 125 | 0.0 | 0.0 | 0.00 | 0.00 | 0.01 | 92 | 1010.8 |
| 20260509045848 | 70 | 134 | 0.0 | 1.7 | 0.00 | 0.00 | 1.36 | 92 | 1010.8 |
| 20260509044823 | 70 | 135 | 0.0 | 0.9 | 0.00 | 0.00 | 1.35 | 92 | 1010.8 |
| 20260509043835 | 70 | 74 | 0.0 | 0.9 | 0.00 | 0.00 | 1.34 | 92 | 1010.8 |
| 20260509042847 | 70 | 113 | 0.0 | 0.9 | 0.00 | 0.00 | 1.33 | 92 | 1011.1 |
| 20260509041834 | 70 | 112 | 0.0 | 0.9 | 0.00 | 0.00 | 1.32 | 92 | 1010.8 |
| 20260509040815 | 71 | 46 | 0.0 | 0.9 | 0.00 | 0.00 | 1.31 | 91 | 1011.1 |
| 20260509035832 | 71 | 68 | 0.9 | 0.9 | 0.00 | 0.00 | 1.30 | 90 | 1010.8 |
| 20260509034824 | 72 | 123 | 0.9 | 1.7 | 0.00 | 0.00 | 1.29 | 89 | 1010.4 |
| 20260509033838 | 72 | 116 | 0.0 | 1.7 | 0.00 | 0.00 | 1.28 | 89 | 1010.4 |
| 20260509031828 | 72 | 136 | 0.9 | 1.7 | 0.00 | 0.00 | 1.26 | 88 | 1009.8 |
| 20260509030837 | 73 | 153 | 0.9 | 2.6 | 0.00 | 0.00 | 1.25 | 87 | 1009.8 |
| 20260509025844 | 73 | 116 | 0.0 | 1.7 | 0.00 | 0.00 | 1.24 | 87 | 1009.8 |
| 20260509024844 | 73 | 148 | 1.7 | 3.5 | 0.00 | 0.00 | 1.23 | 87 | 1008.8 |
| 20260509022807 | 73 | 153 | 1.7 | 3.5 | 0.00 | 0.00 | 1.21 | 86 | 1009.1 |
| 20260509021842 | 73 | 148 | 1.7 | 2.6 | 0.00 | 0.00 | 1.20 | 86 | 1009.1 |
| 20260509020811 | 73 | 111 | 0.0 | 1.7 | 0.00 | 0.00 | 1.19 | 86 | 1009.1 |
| 20260509015843 | 73 | 118 | 0.9 | 1.7 | 0.00 | 0.00 | 1.18 | 86 | 1009.1 |
| 20260509014842 | 73 | 118 | 0.0 | 0.9 | 0.00 | 0.00 | 1.17 | 86 | 1009.4 |
| 20260509013805 | 73 | 46 | 0.0 | 0.9 | 0.00 | 0.00 | 1.16 | 86 | 1009.1 |
| 20260509012847 | 73 | 65 | 0.0 | 0.9 | 0.00 | 0.00 | 1.15 | 85 | 1009.4 |
| 20260509010810 | 74 | 138 | 0.9 | 1.7 | 0.00 | 0.00 | 1.13 | 83 | 1008.8 |
| 20260509004826 | 74 | 144 | 0.9 | 1.7 | 0.00 | 0.00 | 1.11 | 83 | 1008.8 |
| 20260509003813 | 74 | 146 | 0.9 | 2.6 | 0.00 | 0.00 | 1.10 | 82 | 1008.4 |
| 20260509002830 | 74 | 139 | 1.7 | 2.6 | 0.00 | 0.00 | 1.09 | 82 | 1008.4 |
| 20260509001833 | 74 | 137 | 0.9 | 2.6 | 0.00 | 0.00 | 1.08 | 82 | 1008.8 |
| 20260509000807 | 74 | 137 | 0.9 | 2.6 | 0.00 | 0.00 | 1.07 | 82 | 1008.8 |
| 20260508233832 | 74 | 146 | 0.9 | 3.5 | 0.00 | 0.00 | 1.04 | 81 | 1009.1 |
| 20260508232822 | 74 | 152 | 0.9 | 2.6 | 0.00 | 0.00 | 1.03 | 81 | 1009.1 |
| 20260508231836 | 74 | 132 | 0.9 | 2.6 | 0.00 | 0.00 | 1.02 | 81 | 1009.1 |
| 20260508225821 | 74 | 154 | 1.7 | 4.3 | 0.00 | 0.00 | 1.00 | 80 | 1009.1 |
| 20260508224825 | 73 | 167 | 2.6 | 6.1 | 0.00 | 0.00 | 9.94 | 81 | 1009.1 |